Home   Weather   Budapest   Past weeks
Flag for Hungary

Past Weather in Budapest, Hungary — Yesterday and Last 2 Weeks

Now
36 °F

Sunny.


Feels Like: 33 °F
Forecast: 37 / 49 °F
Wind: 3 mph from North

Location: Ferenc Liszt International Airport

Current Time: Nov 15, 2018 at 7:25:45 am

Latest Report: Nov 15, 2018 at 7:00 am


Visibility: 10 mi

Pressure: 30.42 "Hg

Humidity: 93%

Dew Point: 34 °F

Location of BudapestLocation

Past Weather in Budapest — Graph

°F

Budapest Temperature Yesterday

Maximum temperature yesterday: 57 °F (at 11:00 am)
Minimum temperature yesterday: 39 °F (at 8:30 pm)
Average temperature yesterday: 49 °F

High & Low Weather Summary for the Past Weeks

 TemperatureHumidityPressure
High70 °F (Nov 3, 1:30 pm)100% (Nov 1, 3:00 am)30.39 "Hg (Nov 1, 3:00 am)
Low32 °F (Nov 10, 6:00 am)40% (Nov 4, 2:30 pm)30.04 "Hg (Nov 10, 1:00 pm)
Average51 °F82%30.19 "Hg
* Reported Oct 31 6:00 am — Nov 15 6:00 am, Budapest. Weather by CustomWeather, © 2018

Note: Actual official high and low records may vary slightly from our data, if they occured in-between our weather recording intervals... More about our weather records

Advertising

Budapest Weather History for the Previous 24 Hours

Scroll right to see more
 ConditionsComfort  
Time TempWeatherWind HumidityBarometerVisibility
6:00 am
Thu, Nov 15
37 °FPartly cloudy.8 mph87%30.39 "HgN/A
5:30 am34 °FPassing clouds.5 mph93%30.39 "HgN/A
5:00 am34 °FPassing clouds.No wind87%30.39 "HgN/A
4:30 am34 °FPassing clouds.1 mph87%30.39 "HgN/A
4:00 am34 °FPassing clouds.5 mph87%30.39 "HgN/A
3:30 am34 °FPassing clouds.1 mph87%30.39 "HgN/A
3:00 am34 °FPassing clouds.2 mph87%30.39 "HgN/A
2:30 am36 °FPassing clouds.No wind87%30.39 "HgN/A
2:00 am37 °FPassing clouds.2 mph75%30.39 "HgN/A
1:30 am36 °FPassing clouds.3 mph81%30.39 "HgN/A
1:00 am37 °FPassing clouds.5 mph81%30.39 "HgN/A
12:30 am39 °FClear.6 mph70%30.39 "Hg10 mi
12:00 am37 °FPassing clouds.3 mph81%30.39 "HgN/A
11:30 pm
Wed, Nov 14
39 °FClear.6 mph75%30.39 "Hg10 mi
11:00 pm41 °FPassing clouds.8 mph76%30.39 "HgN/A
10:30 pm45 °FPassing clouds.9 mph66%30.39 "HgN/A
10:00 pm43 °FClear.9 mph76%30.39 "Hg10 mi
9:30 pm43 °FClear.6 mph76%30.36 "Hg10 mi
9:00 pm39 °FClear.7 mph81%30.36 "Hg10 mi
8:30 pm39 °FClear.7 mph81%30.36 "Hg10 mi
8:00 pm43 °FClear.6 mph76%30.36 "Hg10 mi
7:30 pm46 °FClear.2 mph66%30.36 "Hg10 mi
7:00 pm48 °FClear.7 mph62%30.36 "Hg10 mi
6:30 pm50 °FPassing clouds.5 mph62%30.36 "HgN/A
6:00 pm50 °FClear.8 mph62%30.36 "Hg10 mi
5:30 pm48 °FClear.9 mph66%30.36 "Hg10 mi
5:00 pm50 °FClear.8 mph62%30.36 "Hg10 mi
4:30 pm52 °FClear.10 mph58%30.33 "Hg10 mi
4:00 pm54 °FSunny.10 mph54%30.33 "Hg10 mi
3:30 pm55 °FSunny.13 mph51%30.33 "Hg10 mi
3:00 pm57 °FScattered clouds.13 mph48%30.33 "HgN/A
2:30 pm57 °FPassing clouds.15 mph44%30.33 "HgN/A
2:00 pm57 °FPassing clouds.10 mph51%30.33 "HgN/A
1:30 pm57 °FPassing clouds.13 mph48%30.33 "HgN/A
1:00 pm57 °FPassing clouds.17 mph44%30.36 "HgN/A
12:30 pm57 °FPassing clouds.15 mph48%30.36 "HgN/A
12:00 pm57 °FPassing clouds.12 mph55%30.36 "HgN/A
11:30 am57 °FPassing clouds.10 mph55%30.36 "HgN/A
11:00 am57 °FPassing clouds.13 mph55%30.39 "HgN/A
10:30 am55 °FSunny.9 mph59%30.39 "Hg10 mi
10:00 am54 °FSunny.10 mph67%30.39 "Hg10 mi
9:30 am52 °FPassing clouds.6 mph72%30.39 "HgN/A
9:00 am50 °FSunny.7 mph76%30.39 "Hg10 mi
8:30 am48 °FSunny.6 mph82%30.39 "Hg10 mi
8:00 am46 °FSunny.8 mph87%30.39 "Hg10 mi
7:30 am46 °FSunny.15 mph87%30.39 "Hg10 mi
7:00 am46 °FSunny.14 mph87%30.36 "Hg10 mi
Weather by CustomWeather, © 2018

See weather overview